FENGYUN 1C DEB, 36261

Orbit data source: Space-Track

FENGYUN 1C DEB, 36261 is space debris in SSO originally from a launch on Mon, 10 May 1999 UTC launched from the Taiyaun Space Center, China (TSC). Fengyun 1C debris stems from the Chinese weather satellite Fengyun-1C, which was intentionally destroyed by a Chinese anti-satellite missile in 2007. This event dramatically increased the amount of space debris, with thousands of trackable fragments posing hazards to satellites and human spaceflight. The Fengyun 1C debris cloud has become a focal point in discussions about space sustainability and the need for international regulations to prevent the creation of new debris.

Loading next visibility...
Identifier
36261, 1999-025DWN
Orbit
SSO
Country
Flag of CNCN / PRC
Related business
Manufacturer
Unknown
Mission
Spacecraft
Bus & Motor
Unknown
Mass
Unknown
Launch date (UTC)
1999-05-10 (27 years ago)
Launch vehicle
Unknown
Launch site
Taiyaun Space Center, China (TSC)
Object type
Payload
Rocket body
Debris
Shape & HBR
Unknown shape, 0.1 m
Radar Cross Section
Small (<0.1 m²)

Expand to show TLE details & history
Last TLE update: 2 days ago

TLE from 2 days ago
0 FENGYUN 1C DEB
1 36261U 99025DWN 26234.56346121  .00000135  00000-0  22064-3 0  9994
2 36261 101.3546 165.2239 0354172 208.8551 149.2575 13.45669667878334
Epoch: 2026-08-22T13:31Z
TLE epoch observation values (Epoch: 2026-08-22T13:31:23.048Z)
Latitude
0.00005°
Longitude
-8.49421°
Altitude
1,320.61 km
Speed
7.085 km/s
True Right ascension
11h 00m 53s
True Declination
0° 00' 00"
Sunlit
Object was in daylight at epoch
Visualization orbit readout
Latitude
Unknown
Longitude
Unknown
Altitude
Unknown
Speed
Unknown
Apparent Right ascension
Unknown
Apparent Declination
Unknown
Sunlit
N/A
Visualization observer readout
Local Sidereal Time
13:13:33
Azimuth
Unknown
Elevation
Unknown
Doppler factor
Unknown
Orbital elements
Apogee altitude
1,349.973 km
Perigee altitude
821.282 km
Semi-major axis
7,463.764 km
Eccentricity
0.03542
Inclination
101.3546°
RAAN
165.2239°
Arg. of periapsis
208.8551°
True anomaly
151.25558°
Mean anomaly
149.2575°
Eccentric anomaly
150.26402°
Mean motion
3.36594 °/min
Orbital period
106.95 mins
BSTAR
0.00022064
Loading maneuver chart data...
Computing Atmospheric mass density...
Loading historical data...
Loading historical data...
Loading historical data...
Loading historical data...
Loading historical data...
Loading historical data...
Loading historical data...

Documentation

Showing up to 5 results
|